Theta_e
302 302 304 304 305 306 305 306 309 311 320 330 332 332 332 334 334 336 338 339 340 342 341 340 340 341 340 342 344 342 341 338 336 325 325 323 323 321 320 321 326 334 338
295 296 297 299 298 301 302 302 303 307 308 311 322 333 335 336 338 337 338 339 341 342 341 340 339 341 341 343 343 342 336 336 332 327 322 320 322 319 319 318 318 319 324
292 293 294 295 296 296 297 299 300 304 304 307 310 318 330 332 332 331 335 337 342 344 341 341 340 340 341 341 343 342 336 334 330 324 326 315 316 314 318 316 313 314 313
292 292 293 293 294 295 297 296 298 300 301 302 305 308 313 315 323 331 333 334 337 339 344 342 342 342 342 342 343 344 342 334 329 323 321 319 317 312 310 315 314 312 313
291 291 292 293 294 295 295 296 296 297 299 298 301 303 305 309 316 319 324 329 334 337 336 337 343 343 343 343 343 344 341 334 331 323 320 316 312 313 311 308 310 309 310
290 291 292 293 293 294 294 294 294 294 295 296 297 298 299 303 305 307 310 320 324 323 328 334 338 342 345 344 344 345 341 336 327 323 318 314 314 309 307 305 306 306 309
289 290 290 291 291 292 293 294 294 293 295 295 295 295 296 298 298 300 305 307 311 315 317 324 331 333 338 344 346 344 340 329 325 323 320 315 312 309 307 305 303 304 305
289 290 290 291 292 292 293 293 294 293 294 295 295 295 296 295 296 298 299 300 303 307 314 318 324 331 333 337 343 341 333 325 325 321 318 314 312 309 306 305 302 301 302
289 289 290 291 292 293 293 294 294 294 294 294 295 295 295 295 295 296 298 298 301 304 307 311 315 320 324 335 337 334 329 324 322 320 318 317 313 309 306 305 303 302 300
288 289 290 292 293 293 294 295 295 294 294 295 294 295 295 296 296 297 298 299 300 301 303 304 309 313 316 332 331 329 325 321 315 313 311 310 308 307 306 305 304 304 303
288 289 290 291 293 294 294 294 294 294 294 294 295 294 295 296 296 296 298 299 299 300 301 302 304 307 311 324 327 325 321 317 315 313 311 310 309 307 306 307 306 305 306
288 289 290 292 293 293 293 294 294 294 294 295 295 294 295 295 295 296 297 298 299 300 300 301 302 305 309 319 325 322 321 319 314 312 311 311 310 307 307 306 305 305 306
288 289 290 291 292 293 293 294 294 294 295 295 294 295 295 295 294 295 296 297 299 300 301 300 301 303 307 313 326 324 320 318 316 314 312 310 308 306 306 305 304 303 302
287 288 289 291 292 293 293 294 294 294 294 295 294 295 295 295 294 295 295 296 297 298 300 301 301 303 307 311 324 323 321 320 319 315 313 310 308 307 305 304 302 300 299
287 288 289 290 291 292 293 294 295 295 294 294 294 294 295 296 296 295 294 295 295 297 300 301 301 303 306 311 323 323 320 319 315 314 312 309 310 310 306 303 300 300 299
287 288 289 290 291 291 292 293 294 295 295 294 294 295 295 296 295 294 293 293 295 296 301 302 302 302 307 309 315 323 322 319 314 310 310 308 311 309 308 306 304 303 301
288 288 289 290 291 291 292 292 293 295 294 293 294 295 295 295 293 292 292 292 297 300 304 305 303 302 308 309 309 314 319 315 311 309 309 309 309 307 306 306 306 305 304
288 288 289 290 291 292 292 292 293 294 294 293 293 294 295 294 293 291 290 291 293 293 295 299 304 307 312 307 306 309 315 312 310 309 309 307 305 305 306 305 304 304 305
288 288 289 290 291 291 292 291 292 292 292 292 293 293 295 294 292 290 289 290 290 289 289 292 293 295 301 304 304 308 309 306 304 304 302 301 300 301 301 305 302 300 299
289 289 290 290 290 291 291 290 290 291 291 292 293 293 295 294 291 291 290 289 289 288 289 289 288 292 293 296 300 306 304 299 296 297 297 297 296 296 297 299 298 296 295
289 291 289 288 289 290 290 289 289 290 292 293 292 293 295 294 292 291 291 290 288 288 288 287 288 287 288 292 295 298 299 296 295 294 293 294 295 294 294 295 296 294 294
289 290 288 288 289 290 289 288 288 292 293 292 291 292 294 294 293 291 290 290 288 287 286 286 286 287 285 289 291 293 294 295 293 292 292 293 293 293 293 294 293 293 294
288 289 287 288 289 290 289 287 290 292 292 290 290 290 292 294 293 291 288 288 288 287 286 286 285 285 285 285 288 290 292 293 291 292 292 292 292 292 293 293 294 294 294
288 289 288 288 288 290 290 290 291 292 290 289 289 290 290 292 293 292 291 289 288 287 287 286 285 285 286 286 287 288 290 291 290 291 293 293 293 294 295 295 295 295 296
289 289 288 288 289 290 290 291 292 291 289 289 289 289 289 290 291 292 291 290 290 290 288 287 287 286 285 288 290 290 290 290 290 291 293 293 294 294 294 294 295 295 294
289 289 289 289 290 290 290 292 292 291 288 288 288 288 288 288 289 290 291 292 291 290 289 289 289 289 289 289 289 290 289 290 290 291 290 290 291 291 292 292 292 293 293
Wind_Speed
19 19 20 20 21 22 24 23 22 22 18 13 6 4 4 3 3 5 6 6 5 7 7 6 6 5 6 7 6 3 4 3 2 3 1 3 4 4 3 3 2 2 3
22 24 24 22 22 21 20 21 21 21 17 15 13 7 5 3 1 3 5 5 7 7 6 7 7 8 7 8 8 6 3 3 4 2 1 1 2 2 3 3 2 2 1
19 21 23 23 22 22 22 20 20 18 18 19 13 13 9 10 5 6 4 2 4 6 7 10 9 10 10 9 10 9 10 7 4 5 3 1 4 1 2 1 1 2 1
18 17 19 20 20 20 19 19 18 18 18 19 15 16 10 9 10 7 6 9 8 9 6 7 6 8 7 9 10 10 9 7 6 2 5 3 5 4 2 2 2 2 2
16 18 18 17 16 17 17 16 18 18 18 17 15 12 13 10 10 10 15 11 10 8 8 6 5 7 6 9 9 8 10 9 5 4 2 2 3 2 2 3 3 1 1
17 16 16 17 18 17 17 18 18 15 15 15 15 15 15 16 13 14 12 11 10 9 10 8 6 8 7 8 9 11 11 9 4 4 6 7 4 4 3 2 2 2 1
17 18 19 18 18 20 20 17 19 19 17 16 14 13 13 12 13 14 12 16 13 11 11 11 9 7 10 10 10 10 11 8 9 8 6 5 7 8 2 3 2 2 2
13 15 17 17 17 18 19 19 21 20 20 18 16 13 11 8 9 10 12 12 12 12 16 14 14 13 14 12 10 9 7 10 9 12 8 7 6 5 6 4 5 1 2
12 13 14 12 15 16 17 18 19 19 20 22 17 15 13 14 12 14 13 12 15 14 16 17 16 14 16 16 12 9 11 10 10 10 11 9 9 10 7 3 3 5 5
11 11 11 11 13 13 12 16 15 17 17 19 18 17 17 16 15 14 16 16 16 17 17 17 17 16 15 19 14 10 8 10 7 6 7 5 3 6 3 3 3 2 3
10 9 9 9 11 11 12 14 14 16 17 17 17 18 20 21 17 16 16 16 18 20 20 19 17 17 16 19 14 13 13 12 11 10 9 6 8 5 5 1 1 2 2
10 9 10 12 12 12 12 16 17 17 17 15 17 18 18 18 20 20 20 20 19 17 21 20 20 18 17 18 16 16 15 14 15 17 19 20 10 12 10 8 10 6 4
10 9 9 12 12 12 13 15 14 15 16 19 18 17 18 20 21 21 22 20 20 20 20 21 20 19 18 17 18 18 17 19 18 18 16 13 16 15 12 11 10 7 5
8 8 10 12 13 12 13 14 14 15 15 17 16 17 18 18 21 20 22 23 20 20 21 20 21 21 19 18 18 18 19 18 16 16 15 14 15 16 14 10 8 8 8
10 11 11 12 12 13 13 14 14 15 15 16 17 20 19 19 19 18 21 20 22 21 22 22 22 21 19 14 21 20 19 18 16 17 16 15 17 19 16 9 8 8 5
11 12 12 13 13 14 14 14 15 15 14 15 16 19 22 22 21 20 21 21 22 22 22 21 20 21 15 22 25 22 19 18 18 16 14 14 19 17 17 14 16 12 9
9 11 11 11 12 13 13 13 15 14 14 14 15 17 21 21 21 21 20 24 22 23 23 15 16 19 18 25 21 25 17 17 17 18 15 14 11 15 11 15 14 11 10
7 9 9 10 11 10 12 13 13 13 14 14 15 16 18 20 20 20 20 21 22 23 21 20 13 15 15 18 20 18 14 14 16 17 17 14 14 13 14 12 10 8 6
7 6 7 8 10 11 11 11 13 13 13 14 14 16 15 19 19 19 19 19 19 19 21 20 22 23 18 8 21 18 13 16 15 14 17 13 11 14 17 12 11 10 9
5 6 8 7 7 10 10 10 12 12 13 14 13 13 12 15 16 17 16 17 18 20 17 20 21 30 23 32 9 16 12 17 15 14 18 23 17 21 17 11 9 9 6
6 7 7 7 8 9 9 10 11 12 13 13 12 12 9 11 14 14 15 17 18 19 19 19 20 23 24 25 32 16 12 12 13 13 11 9 21 20 16 13 7 7 5
7 6 6 7 8 7 8 10 11 13 12 11 11 12 9 9 10 14 15 16 16 16 17 18 17 15 18 28 29 29 30 21 12 10 8 9 16 15 14 10 11 11 8
6 5 5 7 8 9 6 7 12 12 11 11 12 11 10 7 9 12 13 11 14 13 14 13 12 12 13 12 23 26 26 23 12 8 9 12 11 12 11 11 10 11 6
4 4 6 7 7 8 8 7 9 11 10 11 12 10 10 10 7 7 8 9 10 11 11 13 13 11 10 10 9 8 10 13 11 9 9 9 9 9 9 9 8 5 5
3 3 4 5 7 7 8 8 9 8 9 9 10 11 8 9 8 5 7 8 9 10 9 10 10 11 11 12 18 14 9 8 9 7 8 8 8 9 7 6 5 4 3
3 4 5 5 6 7 7 8 8 8 7 8 8 8 8 8 8 6 4 8 10 14 17 17 13 9 17 21 22 19 19 16 12 8 8 8 8 7 5 4 4 4 3
Wind_Direction
11 12 15 14 10 18 16 17 11 11 10 358 341 285 217 215 206 218 234 226 228 224 217 231 234 222 226 224 207 207 209 254 223 118 30 26 28 47 27 19 38 92 160
9 4 5 9 13 12 11 11 11 9 13 360 353 342 314 276 199 208 223 219 222 217 217 218 219 219 232 219 213 185 177 196 186 185 57 312 331 356 21 31 45 62 315
6 2 4 1 1 7 5 6 5 5 12 359 352 359 4 358 7 359 340 333 229 219 220 220 223 221 209 223 217 197 184 203 185 195 159 148 223 341 346 49 350 5 345
0 2 1 360 0 359 359 360 359 1 9 359 2 2 360 352 338 324 303 301 277 286 234 228 243 242 237 244 228 216 203 180 199 187 174 161 142 171 247 281 285 332 338
358 357 357 354 353 358 358 354 358 1 359 358 357 356 354 338 328 329 327 319 323 308 299 325 278 260 246 252 248 243 227 213 193 188 65 351 63 51 135 213 218 263 292
355 353 352 351 352 355 357 357 359 356 353 350 347 351 347 333 335 330 323 318 319 317 316 312 305 294 273 254 247 238 226 210 216 131 156 125 296 196 169 158 220 211 227
349 350 352 354 353 353 352 351 352 348 349 349 347 343 334 328 322 318 314 318 312 314 309 308 290 276 265 259 243 230 227 188 194 169 179 137 108 297 159 126 154 185 220
350 350 348 347 351 351 350 348 347 343 344 343 343 340 327 319 309 305 306 299 300 300 305 301 299 287 279 270 247 231 195 172 187 174 191 154 150 139 262 174 142 186 241
348 349 346 345 351 351 343 344 343 340 341 338 336 332 328 320 313 306 300 300 299 298 299 300 292 287 288 258 228 221 204 179 183 186 189 183 164 135 240 203 167 157 183
339 343 338 346 352 341 340 345 343 341 336 332 331 327 327 322 314 308 310 303 297 295 297 295 290 286 282 266 212 202 188 174 152 137 136 105 28 122 157 201 178 151 147
325 325 329 335 337 333 344 345 347 342 339 338 334 329 326 322 318 310 307 305 303 298 294 292 289 286 279 273 203 184 174 167 153 140 142 171 153 173 121 195 110 170 145
321 324 328 337 338 341 346 352 350 345 343 335 332 331 326 322 316 313 307 306 301 295 293 289 286 281 278 278 203 180 180 174 167 171 173 184 168 145 169 178 195 192 166
320 323 333 333 338 345 348 348 349 344 337 339 337 328 322 325 323 316 310 303 298 297 293 285 278 278 278 280 216 187 186 174 185 179 180 180 165 162 176 190 180 154 146
309 324 330 338 343 344 347 344 344 342 342 340 335 330 330 324 320 314 311 308 298 291 287 278 273 271 266 265 231 198 190 190 189 176 169 168 173 172 173 176 163 146 134
334 335 332 331 334 338 337 340 337 339 342 339 336 343 335 331 322 316 315 307 301 293 282 274 272 264 257 252 244 200 192 182 172 170 172 164 173 176 162 156 152 145 126
329 328 328 331 332 334 333 333 330 331 334 335 343 342 342 336 335 329 323 318 309 295 283 269 264 260 254 256 222 199 198 188 175 163 161 152 161 153 148 152 153 152 140
322 322 322 325 325 325 326 326 323 321 323 325 332 339 345 342 342 336 336 335 334 332 325 274 257 257 253 254 195 192 188 178 170 150 156 148 143 139 142 148 150 144 132
315 318 316 320 321 319 322 326 323 323 326 326 335 334 342 347 349 347 348 355 347 352 352 354 324 264 254 203 178 178 172 155 151 142 139 135 136 139 141 139 137 127 110
298 293 306 313 316 315 317 325 326 333 333 330 337 335 343 347 352 354 358 357 357 357 358 355 12 11 359 191 149 144 146 126 117 117 111 110 107 127 128 129 123 115 112
319 312 319 312 312 322 332 334 334 336 335 333 334 330 340 349 355 359 3 8 5 3 1 4 12 16 16 14 19 132 125 117 107 94 94 103 108 95 97 106 116 130 111
311 328 332 314 312 325 333 342 332 336 326 328 333 336 339 350 4 356 3 15 13 2 2 4 12 16 15 24 22 46 103 98 92 108 107 100 99 100 104 113 114 96 112
334 333 334 326 319 325 345 342 337 326 325 327 338 343 337 357 3 7 7 6 17 7 360 5 12 12 14 16 22 30 52 63 79 65 83 100 104 108 108 100 117 125 123
324 329 335 330 333 336 343 332 326 326 331 340 345 344 346 0 4 13 11 12 10 13 5 5 4 8 14 15 17 27 45 51 61 56 74 85 90 98 96 122 124 127 134
324 323 340 338 332 335 334 324 326 331 341 345 348 345 350 353 12 12 15 14 13 9 10 4 4 7 15 15 18 20 39 46 57 55 57 69 79 78 96 110 124 125 145
300 325 331 325 330 330 330 331 334 338 349 348 350 350 354 351 352 21 18 25 21 24 12 10 4 6 15 17 23 30 20 22 32 52 59 57 69 81 81 86 103 116 115
278 317 329 335 327 332 336 341 340 346 356 360 355 353 354 355 359 357 18 357 14 20 20 15 22 7 18 20 23 24 28 27 23 51 54 59 60 61 59 65 75 82 79